600  
NZUS93 KARX 010610  
HRRWXR  
 
CURRENT HOURLY OBSERVATIONS ACROSS  
MUCH OF THE UPPER MISSISSIPPI VALLEY  
NATIONAL WEATHER SERVICE LA CROSSE WI  
100 AM CDT MON MAY 01 2017  
 
   
..SOUTHEAST MINNESOTA
 
 
 
CITY SKY/WX TMP DP RH WIND PRES REMARKS  
ROCHESTER CLOUDY 38 37 97 E15 29.52F WCI 29  
ROCHESTER/MAYO CLOUDY 38 38 100 NE12G18 29.52F WCI 31  
WINONA LGT RAIN 37 36 93 NE8G17 29.54F WCI 31  
AUSTIN CLOUDY 37 36 93 E10 29.50R WCI 30  
ALBERT LEA CLOUDY 37 37 100 E12 29.52R WCI 30  
DODGE CENTER CLOUDY 37 37 100 NE15 29.50F WCI 28  
PRESTON CLOUDY 37 34 92 NE8 29.52R WCI 30  
OWATONNA LGT RAIN 39 37 93 NE15 29.49F WCI 31  
FARIBAULT LGT RAIN 39 39 100 N15G22 29.51F WCI 31  

 
   
..ELSEWHERE IN MINNESOTA
 
 
 
CITY SKY/WX TMP DP RH WIND PRES REMARKS  
MINNEAPOLIS LGT RAIN 38 35 89 NE16G24 29.63F WCI 29  
INTNL FALLS CLOUDY 40 19 43 NE6 29.86F  
DULUTH CLOUDY 41 18 39 E20G25 29.75F  
RED WING LGT RAIN 41 37 87 E9G17 29.57F  
REDWOOD FALLS LGT SNOW 33 31 92 N15G25 29.61F FOG WCI 23  
MANKATO LGT RAIN 38 37 97 N29 29.45F WCI 26  
WORTHINGTON LGT RAIN 33 32 96 N26G32 29.53F WCI 20  
FAIRMONT LGT RAIN 39 38 96 NE13 29.53R WCI 31  

 
   
..SOUTHWEST WISCONSIN
 
 
 
CITY SKY/WX TMP DP RH WIND PRES REMARKS  
LA CROSSE LGT RAIN 41 39 93 NE3 29.55F  
PRAIRIE DU CHI MOCLDY 40 39 97 NE5 29.51F  
BOSCOBEL LGT RAIN 41 50 100 NE6 29.54F  
LONE ROCK CLOUDY 41 38 89 E13 29.56F  
PLATTEVILLE CLOUDY 42 42 100 NE13G18 29.50F  
FORT MC COY RAIN 37 37 100 NE10 29.60F WCI 30  
CAMP DOUGLAS HVY RAIN 37 37 100 N7 29.62F FOG WCI 32  
MAUSTON-NEW LI LGT RAIN 38 37 97 N3 29.61R  
VIROQUA CLOUDY 37 37 100 NE12 29.55F WCI 30  
WIS DELLS LGT RAIN 38 37 96 NE7 29.59R WCI 33  

 
   
..ELSEWHERE IN WISCONSIN
 
 
 
CITY SKY/WX TMP DP RH WIND PRES REMARKS  
MILWAUKEE TSTM 41 40 96 NE13 29.59S FOG  
MADISON LGT RAIN 41 40 96 CALM 29.59R  
GREEN BAY LGT RAIN 39 38 96 NE20 29.66F FOG WCI 29  
EAU CLAIRE LGT RAIN 39 39 100 CALM 29.65F FOG  
BLACK RVR FLS RAIN 38 38 100 NE3 29.64F  
MEDFORD RAIN 36 34 93 E21G29 29.57F WCI 24  
WAUSAU RAIN 36 34 92 E17G23 29.61F FOG WCI 26  
WIS RAPIDS LGT RAIN 37 36 96 E16G30 29.57F WCI 28  
MARSHFIELD RAIN 36 33 89 E18G30 29.57F FOG WCI 26  
RICE LAKE HVY RAIN 39 37 92 N5 29.67F  

 
   
..NORTHEAST IOWA
 
 
 
CITY SKY/WX TMP DP RH WIND PRES REMARKS  
WATERLOO CLOUDY 42 39 89 E8 29.48F  
DUBUQUE CLOUDY 42 41 96 NE17 29.47F  
DECORAH PTCLDY 37 37 100 NE13G20 29.49F WCI 29  
MASON CITY CLOUDY 39 37 92 NE12 29.50F WCI 32  
CHARLES CITY CLOUDY 41 41 100 NE12 29.50F  
OELWEIN CLOUDY 41 41 100 E16 29.48R  

 
   
..ELSEWHERE IN IOWA
 
 
 
CITY SKY/WX TMP DP RH WIND PRES REMARKS  
DES MOINES CLOUDY 46 45 96 E6 29.42F  
IOWA CITY CLOUDY 46 44 93 E6 29.50F  
FORT DODGE CLOUDY 41 36 81 NE8 29.46F  
MARSHALLTOWN LGT RAIN 43 42 97 E8 29.45F FOG  
CEDAR RAPIDS CLOUDY 44 50 100 SE8 29.47S  

 
   
..NORTHERN ILLINOIS
 
 
 
CITY SKY/WX TMP DP RH WIND PRES REMARKS  
CHICAGO-OHARE LGT RAIN 46 44 93 N8 29.52F  
CHICAGO-MIDWAY LGT RAIN 50 50 100 N8 29.51F  
MOLINE CLOUDY 48 46 93 S7 29.48R  
ROCKFORD LGT RAIN 47 44 90 E8 29.52F  
PEORIA CLOUDY 57 55 93 W16G25 29.49R  

 
 
NOTE: "FAIR" INDICATES FEW OR NO CLOUDS BELOW 12,000 FEET WITH NO  
SIGNIFICANT WEATHER AND/OR OBSTRUCTIONS TO VISIBILITY. WIND  
SPEEDS ARE IN MILES-PER-HOUR.  
 
 
CLICK HERE TO GO TO PREVIOUS BULLETINS.

The Nexlab WI Page
The Nexlab IA Page
The Nexlab MN Page Main Text Page